Time,TemperatureF,DewpointF,PressureIn,WindDirection,WindDirectionDegrees,WindSpeedMPH,WindSpeedGustMPH,Humidity,HourlyPrecipIn,Conditions,Clouds,dailyrainin,SoftwareType,DateUTC
2013-02-02 00:00:00,19.8,12.8,30.15,SW,225,6.7,11.5,74,0.00,CLR,SKC,0.00,WeatherDisplay:10.37,2013-02-02 05:00:00,
2013-02-02 00:05:00,19.9,13.0,30.15,SSW,202,3.0,8.1,74,0.00,CLR,SKC,0.00,WeatherDisplay:10.37,2013-02-02 05:05:00,
2013-02-02 00:10:00,19.9,13.0,30.15,SSW,202,4.8,9.2,74,0.00,CLR,SKC,0.00,WeatherDisplay:10.37,2013-02-02 05:10:00,
2013-02-02 00:15:00,19.9,13.0,30.15,WSW,248,4.0,5.8,74,0.00,CLR,SKC,0.00,WeatherDisplay:10.37,2013-02-02 05:15:00,
2013-02-02 00:20:00,19.9,13.0,30.15,SSW,202,3.5,9.4,74,0.00,CLR,SKC,0.00,WeatherDisplay:10.37,2013-02-02 05:20:00,
2013-02-02 00:25:00,19.9,13.0,30.15,SW,225,3.2,6.5,74,0.00,CLR,SKC,0.00,WeatherDisplay:10.37,2013-02-02 05:25:00,
2013-02-02 00:30:00,20.1,13.2,30.15,SW,225,6.4,8.1,74,0.00,CLR,SKC,0.00,WeatherDisplay:10.37,2013-02-02 05:30:00,
2013-02-02 00:35:00,19.9,13.0,30.15,South,180,5.5,11.8,74,0.00,CLR,SKC,0.00,WeatherDisplay:10.37,2013-02-02 05:35:00,
2013-02-02 00:40:00,20.1,13.2,30.15,WSW,248,3.3,5.8,74,0.00,CLR,SKC,0.00,WeatherDisplay:10.37,2013-02-02 05:40:00,
2013-02-02 00:45:00,20.1,13.2,30.15,SSW,202,6.5,6.9,74,0.00,CLR,SKC,0.00,WeatherDisplay:10.37,2013-02-02 05:45:00,
2013-02-02 00:50:00,20.1,13.2,30.14,SW,225,2.1,6.9,74,0.00,CLR,SKC,0.00,WeatherDisplay:10.37,2013-02-02 05:50:00,
2013-02-02 00:55:00,20.3,13.6,30.15,SW,225,2.4,7.8,75,0.00,CLR,SKC,0.00,WeatherDisplay:10.37,2013-02-02 05:55:00,
2013-02-02 01:00:00,20.3,13.6,30.14,SW,225,3.6,9.2,75,0.00,CLR,SKC,0.00,WeatherDisplay:10.37,2013-02-02 06:00:00,
2013-02-02 01:05:00,20.3,13.9,30.15,SSW,202,7.0,10.4,76,0.00,CLR,SKC,0.00,WeatherDisplay:10.37,2013-02-02 06:05:00,
2013-02-02 01:10:00,20.1,13.8,30.15,WSW,248,3.2,8.1,76,0.00,CLR,SKC,0.00,WeatherDisplay:10.37,2013-02-02 06:10:00,
2013-02-02 01:15:00,20.1,13.8,30.15,SSW,202,4.6,8.1,76,0.00,CLR,SKC,0.00,WeatherDisplay:10.37,2013-02-02 06:15:00,
2013-02-02 01:20:00,20.1,14.1,30.14,SSW,202,3.6,6.9,77,0.00,CLR,SKC,0.00,WeatherDisplay:10.37,2013-02-02 06:20:00,
2013-02-02 01:25:00,20.1,14.1,30.14,SSE,158,4.2,8.1,77,0.00,CLR,SKC,0.00,WeatherDisplay:10.37,2013-02-02 06:25:00,
2013-02-02 01:30:00,20.1,14.1,30.14,SW,225,2.0,5.8,77,0.00,CLR,SKC,0.00,WeatherDisplay:10.37,2013-02-02 06:30:00,
2013-02-02 01:35:00,20.1,14.1,30.13,SSW,202,1.3,4.0,77,0.00,CLR,SKC,0.00,WeatherDisplay:10.37,2013-02-02 06:35:00,
2013-02-02 01:40:00,20.1,14.4,30.13,South,180,7.7,9.2,78,0.00,CLR,SKC,0.00,WeatherDisplay:10.37,2013-02-02 06:40:00,
2013-02-02 01:45:00,20.1,14.4,30.13,SW,225,3.0,4.6,78,0.00,CLR,SKC,0.00,WeatherDisplay:10.37,2013-02-02 06:45:00,
2013-02-02 01:50:00,20.1,14.4,30.13,SSW,202,1.8,4.6,78,0.00,CLR,SKC,0.00,WeatherDisplay:10.37,2013-02-02 06:50:00,
2013-02-02 01:55:00,20.1,14.4,30.13,SSW,202,3.6,6.9,78,0.00,CLR,SKC,0.00,WeatherDisplay:10.37,2013-02-02 06:55:00,
2013-02-02 02:00:00,20.1,14.7,30.13,SW,225,0.9,5.8,79,0.00,CLR,SKC,0.00,WeatherDisplay:10.37,2013-02-02 07:00:00,
2013-02-02 02:05:00,20.1,14.7,30.13,South,180,1.3,3.5,79,0.00,CLR,SKC,0.00,WeatherDisplay:10.37,2013-02-02 07:05:00,
2013-02-02 02:10:00,20.1,14.7,30.13,SW,225,4.0,4.6,79,0.00,CLR,SKC,0.00,WeatherDisplay:10.37,2013-02-02 07:10:00,
2013-02-02 02:15:00,20.1,14.7,30.13,SW,225,1.9,4.6,79,0.00,CLR,SKC,0.00,WeatherDisplay:10.37,2013-02-02 07:15:00,
2013-02-02 02:20:00,20.3,14.8,30.13,SSW,202,0.2,10.1,79,0.00,CLR,SKC,0.00,WeatherDisplay:10.37,2013-02-02 07:20:00,
2013-02-02 02:25:00,20.3,14.8,30.13,SW,225,3.8,7.6,79,0.00,CLR,SKC,0.00,WeatherDisplay:10.37,2013-02-02 07:25:00,
2013-02-02 02:30:00,20.3,14.8,30.13,SSW,202,2.7,5.6,79,0.00,CLR,SKC,0.00,WeatherDisplay:10.37,2013-02-02 07:30:00,
2013-02-02 02:35:00,20.5,15.0,30.13,SSW,202,1.3,8.1,79,0.00,CLR,SKC,0.00,WeatherDisplay:10.37,2013-02-02 07:35:00,
2013-02-02 02:40:00,20.5,15.0,30.13,WSW,248,4.9,6.9,79,0.00,CLR,SKC,0.00,WeatherDisplay:10.37,2013-02-02 07:40:00,
2013-02-02 02:45:00,20.5,15.0,30.13,SSW,202,5.2,8.1,79,0.00,CLR,SKC,0.00,WeatherDisplay:10.37,2013-02-02 07:45:00,
2013-02-02 02:50:00,20.5,15.0,30.13,South,180,5.2,8.9,79,0.00,CLR,SKC,0.00,WeatherDisplay:10.37,2013-02-02 07:50:00,
2013-02-02 02:55:00,20.5,15.0,30.13,South,180,4.8,5.8,79,0.00,CLR,SKC,0.00,WeatherDisplay:10.37,2013-02-02 07:55:00,
2013-02-02 03:00:00,20.5,15.0,30.13,SSW,202,3.4,5.8,79,0.00,CLR,SKC,0.00,WeatherDisplay:10.37,2013-02-02 08:00:00,
2013-02-02 03:05:00,20.5,15.0,30.13,SW,225,6.9,10.4,79,0.00,CLR,SKC,0.00,WeatherDisplay:10.37,2013-02-02 08:05:00,
2013-02-02 03:10:00,20.5,15.0,30.13,SSW,202,2.2,4.7,79,0.00,CLR,SKC,0.00,WeatherDisplay:10.37,2013-02-02 08:10:00,
2013-02-02 03:15:00,20.5,15.0,30.13,SW,225,2.8,6.9,79,0.00,CLR,SKC,0.00,WeatherDisplay:10.37,2013-02-02 08:15:00,
2013-02-02 03:20:00,20.5,15.0,30.13,SSW,202,4.8,8.1,79,0.00,CLR,SKC,0.00,WeatherDisplay:10.37,2013-02-02 08:20:00,
2013-02-02 03:25:00,20.5,15.3,30.13,SSW,202,4.8,8.1,80,0.00,CLR,SKC,0.00,WeatherDisplay:10.37,2013-02-02 08:25:00,
2013-02-02 03:30:00,20.5,15.3,30.13,SSW,202,7.3,8.5,80,0.00,CLR,SKC,0.00,WeatherDisplay:10.37,2013-02-02 08:30:00,
2013-02-02 03:35:00,20.5,15.3,30.12,South,180,6.3,11.5,80,0.00,CLR,SKC,0.00,WeatherDisplay:10.37,2013-02-02 08:35:00,
2013-02-02 03:40:00,20.5,15.3,30.12,South,180,1.4,6.9,80,0.00,CLR,SKC,0.00,WeatherDisplay:10.37,2013-02-02 08:40:00,
2013-02-02 03:45:00,20.5,15.3,30.11,SSW,202,6.1,8.1,80,0.00,CLR,SKC,0.00,WeatherDisplay:10.37,2013-02-02 08:45:00,
2013-02-02 03:50:00,20.5,15.3,30.10,WSW,248,4.1,8.1,80,0.00,CLR,SKC,0.00,WeatherDisplay:10.37,2013-02-02 08:50:00,
2013-02-02 03:55:00,20.5,15.3,30.11,SSE,158,3.0,5.8,80,0.00,CLR,SKC,0.00,WeatherDisplay:10.37,2013-02-02 08:55:00,
2013-02-02 04:00:00,20.3,15.4,30.10,SSW,202,0.7,5.8,81,0.00,CLR,SKC,0.00,WeatherDisplay:10.37,2013-02-02 09:00:00,
2013-02-02 04:05:00,20.3,15.4,30.09,SE,135,1.3,5.8,81,0.00,CLR,SKC,0.00,WeatherDisplay:10.37,2013-02-02 09:05:00,
2013-02-02 04:10:00,20.3,15.4,30.08,SSW,202,2.4,5.8,81,0.00,CLR,SKC,0.00,WeatherDisplay:10.37,2013-02-02 09:10:00,
2013-02-02 04:15:00,20.3,15.4,30.08,South,180,3.5,5.8,81,0.00,CLR,SKC,0.00,WeatherDisplay:10.37,2013-02-02 09:15:00,
2013-02-02 04:20:00,20.1,15.2,30.08,SSW,202,1.0,5.8,81,0.00,CLR,SKC,0.00,WeatherDisplay:10.37,2013-02-02 09:20:00,
2013-02-02 04:25:00,20.3,15.4,30.07,SW,225,5.0,6.9,81,0.00,CLR,SKC,0.00,WeatherDisplay:10.37,2013-02-02 09:25:00,
2013-02-02 04:30:00,20.3,15.4,30.06,SSW,202,3.7,10.5,81,0.00,CLR,SKC,0.00,WeatherDisplay:10.37,2013-02-02 09:30:00,
2013-02-02 04:35:00,20.3,15.4,30.06,SSE,158,5.3,8.1,81,0.00,CLR,SKC,0.00,WeatherDisplay:10.37,2013-02-02 09:35:00,
2013-02-02 04:40:00,20.1,15.2,30.05,SW,225,3.5,4.9,81,0.00,CLR,SKC,0.00,WeatherDisplay:10.37,2013-02-02 09:40:00,
2013-02-02 04:45:00,20.1,15.2,30.06,SW,225,4.1,5.8,81,0.00,CLR,SKC,0.00,WeatherDisplay:10.37,2013-02-02 09:45:00,
2013-02-02 04:50:00,20.3,15.4,30.05,SW,225,5.6,11.5,81,0.00,CLR,SKC,0.00,WeatherDisplay:10.37,2013-02-02 09:50:00,
2013-02-02 04:55:00,20.3,15.7,30.05,SSW,202,1.4,5.8,82,0.00,CLR,SKC,0.00,WeatherDisplay:10.37,2013-02-02 09:55:00,
2013-02-02 05:00:00,20.3,15.7,30.05,SW,225,2.2,8.1,82,0.00,CLR,SKC,0.00,WeatherDisplay:10.37,2013-02-02 10:00:00,
2013-02-02 05:05:00,20.5,15.9,30.05,South,180,3.1,3.5,82,0.00,CLR,SKC,0.00,WeatherDisplay:10.37,2013-02-02 10:05:00,
2013-02-02 05:10:00,20.3,15.7,30.04,SW,225,3.3,11.6,82,0.00,CLR,SKC,0.00,WeatherDisplay:10.37,2013-02-02 10:10:00,
2013-02-02 05:15:00,20.5,15.9,30.04,SSE,158,4.0,10.4,82,0.00,CLR,SKC,0.00,WeatherDisplay:10.37,2013-02-02 10:15:00,
2013-02-02 05:20:00,20.5,15.9,30.03,SSE,158,7.3,7.3,82,0.00,CLR,SKC,0.00,WeatherDisplay:10.37,2013-02-02 10:20:00,
2013-02-02 05:25:00,20.5,15.9,30.03,NNE,22,4.3,12.7,82,0.00,CLR,SKC,0.00,WeatherDisplay:10.37,2013-02-02 10:25:00,
2013-02-02 05:30:00,20.5,15.9,30.03,WNW,292,2.4,4.6,82,0.00,CLR,SKC,0.00,WeatherDisplay:10.37,2013-02-02 10:30:00,
2013-02-02 05:35:00,20.5,15.9,30.03,South,180,6.3,6.3,82,0.00,CLR,SKC,0.00,WeatherDisplay:10.37,2013-02-02 10:35:00,
2013-02-02 05:40:00,20.5,15.9,30.03,SSE,158,6.7,11.5,82,0.00,CLR,SKC,0.00,WeatherDisplay:10.37,2013-02-02 10:40:00,
2013-02-02 05:45:00,20.5,15.9,30.02,SSW,202,3.7,8.3,82,0.00,CLR,SKC,0.00,WeatherDisplay:10.37,2013-02-02 10:45:00,
2013-02-02 05:50:00,20.7,16.0,30.03,SW,225,6.3,9.2,82,0.00,CLR,SKC,0.00,WeatherDisplay:10.37,2013-02-02 10:50:00,
2013-02-02 05:55:00,20.8,16.5,30.02,ESE,112,4.7,8.1,83,0.00,CLR,SKC,0.00,WeatherDisplay:10.37,2013-02-02 10:55:00,
2013-02-02 06:00:00,20.8,16.5,30.02,SSW,202,1.4,8.1,83,0.00,CLR,SKC,0.00,WeatherDisplay:10.37,2013-02-02 11:00:00,
2013-02-02 06:05:00,20.8,16.5,30.02,South,180,2.2,5.8,83,0.00,CLR,SKC,0.00,WeatherDisplay:10.37,2013-02-02 11:05:00,
2013-02-02 06:10:00,20.8,16.5,30.02,ESE,112,1.8,8.1,83,0.00,CLR,SKC,0.00,WeatherDisplay:10.37,2013-02-02 11:10:00,
2013-02-02 06:15:00,20.8,16.5,30.02,SW,225,3.5,12.7,83,0.00,CLR,SKC,0.00,WeatherDisplay:10.37,2013-02-02 11:15:00,
2013-02-02 06:20:00,21.0,16.7,30.02,SSW,202,3.6,4.6,83,0.00,CLR,SKC,0.00,WeatherDisplay:10.37,2013-02-02 11:20:00,
2013-02-02 06:25:00,21.0,16.7,30.01,SSW,202,1.9,4.6,83,0.00,CLR,SKC,0.00,WeatherDisplay:10.37,2013-02-02 11:25:00,
2013-02-02 06:30:00,21.0,16.7,30.01,SSW,202,7.5,9.6,83,0.00,CLR,SKC,0.00,WeatherDisplay:10.37,2013-02-02 11:30:00,
2013-02-02 06:35:00,21.0,16.7,30.00,WSW,248,9.2,16.1,83,0.00,CLR,SKC,0.00,WeatherDisplay:10.37,2013-02-02 11:35:00,
2013-02-02 06:40:00,21.2,16.8,30.00,South,180,4.4,9.2,83,0.00,CLR,SKC,0.00,WeatherDisplay:10.37,2013-02-02 11:40:00,
2013-02-02 06:45:00,21.4,17.0,30.00,South,180,0.6,6.9,83,0.00,CLR,SKC,0.00,WeatherDisplay:10.37,2013-02-02 11:45:00,
2013-02-02 06:50:00,21.4,17.0,30.00,SSW,202,8.7,12.7,83,0.00,CLR,SKC,0.00,WeatherDisplay:10.37,2013-02-02 11:50:00,
2013-02-02 06:55:00,21.4,17.0,29.99,West,270,3.7,6.9,83,0.00,CLR,SKC,0.00,WeatherDisplay:10.37,2013-02-02 11:55:00,
2013-02-02 07:00:00,21.6,17.2,30.00,South,180,5.6,10.4,83,0.00,CLR,SKC,0.00,WeatherDisplay:10.37,2013-02-02 12:00:00,
2013-02-02 07:05:00,21.6,17.2,30.00,SW,225,8.1,10.4,83,0.00,CLR,SKC,0.00,WeatherDisplay:10.37,2013-02-02 12:05:00,
2013-02-02 07:10:00,21.6,17.2,29.99,SSW,202,6.0,9.2,83,0.00,CLR,SKC,0.00,WeatherDisplay:10.37,2013-02-02 12:10:00,
2013-02-02 07:15:00,21.7,17.4,29.99,SSW,202,5.9,10.4,83,0.00,CLR,SKC,0.00,WeatherDisplay:10.37,2013-02-02 12:15:00,
2013-02-02 07:20:00,21.7,17.4,29.99,South,180,2.9,6.9,83,0.00,CLR,SKC,0.00,WeatherDisplay:10.37,2013-02-02 12:20:00,
2013-02-02 07:25:00,21.9,17.5,29.99,SW,225,6.7,13.8,83,0.00,CLR,SKC,0.00,WeatherDisplay:10.37,2013-02-02 12:25:00,
2013-02-02 07:30:00,21.9,17.5,29.98,SSW,202,4.5,9.2,83,0.00,CLR,SKC,0.00,WeatherDisplay:10.37,2013-02-02 12:30:00,
2013-02-02 07:35:00,21.9,17.5,29.98,WSW,248,4.7,6.9,83,0.00,CLR,SKC,0.00,WeatherDisplay:10.37,2013-02-02 12:35:00,
2013-02-02 07:40:00,21.9,17.5,29.98,SSW,202,6.2,15.0,83,0.00,CLR,SKC,0.00,WeatherDisplay:10.37,2013-02-02 12:40:00,
2013-02-02 07:45:00,22.1,17.7,29.98,South,180,2.5,3.6,83,0.00,CLR,SKC,0.00,WeatherDisplay:10.37,2013-02-02 12:45:00,
2013-02-02 07:50:00,22.1,17.7,29.97,SW,225,3.5,11.5,83,0.00,CLR,SKC,0.00,WeatherDisplay:10.37,2013-02-02 12:50:00,
2013-02-02 07:55:00,22.1,17.7,29.97,SSW,202,2.6,10.4,83,0.00,CLR,SKC,0.00,WeatherDisplay:10.37,2013-02-02 12:55:00,
2013-02-02 08:01:00,22.3,17.9,29.97,SSE,158,3.7,8.1,83,0.00,CLR,SKC,0.00,WeatherDisplay:10.37,2013-02-02 13:01:00,
2013-02-02 08:06:00,22.5,18.1,29.97,SSW,202,4.5,4.6,83,0.00,CLR,SKC,0.00,WeatherDisplay:10.37,2013-02-02 13:06:00,
2013-02-02 08:11:00,22.5,18.1,29.97,WSW,248,5.8,12.7,83,0.00,CLR,SKC,0.00,WeatherDisplay:10.37,2013-02-02 13:11:00,
2013-02-02 08:16:00,22.6,18.0,29.97,SSW,202,6.8,6.8,82,0.00,CLR,SKC,0.00,WeatherDisplay:10.37,2013-02-02 13:16:00,
2013-02-02 08:21:00,22.8,18.1,29.97,SSW,202,1.7,5.8,82,0.00,CLR,SKC,0.00,WeatherDisplay:10.37,2013-02-02 13:21:00,
2013-02-02 08:26:00,22.8,18.1,29.97,South,180,1.4,8.7,82,0.00,CLR,SKC,0.00,WeatherDisplay:10.37,2013-02-02 13:26:00,
2013-02-02 08:31:00,22.8,18.1,29.96,SW,225,2.4,3.5,82,0.00,CLR,SKC,0.00,WeatherDisplay:10.37,2013-02-02 13:31:00,
2013-02-02 08:36:00,23.2,18.5,29.97,SSW,202,4.1,9.2,82,0.00,CLR,SKC,0.00,WeatherDisplay:10.37,2013-02-02 13:36:00,
2013-02-02 08:41:00,23.4,18.7,29.96,SE,135,5.5,8.1,82,0.00,CLR,SKC,0.00,WeatherDisplay:10.37,2013-02-02 13:41:00,
2013-02-02 08:46:00,23.5,19.1,29.96,West,270,2.4,6.9,83,0.00,CLR,SKC,0.00,WeatherDisplay:10.37,2013-02-02 13:46:00,
2013-02-02 08:51:00,23.7,19.0,29.97,South,180,2.1,9.2,82,0.00,CLR,SKC,0.00,WeatherDisplay:10.37,2013-02-02 13:51:00,
2013-02-02 08:56:00,23.9,19.2,29.97,SW,225,2.4,3.5,82,0.00,CLR,SKC,0.00,WeatherDisplay:10.37,2013-02-02 13:56:00,
2013-02-02 09:01:00,23.9,19.2,29.96,SW,225,2.0,9.4,82,0.00,CLR,SKC,0.00,WeatherDisplay:10.37,2013-02-02 14:01:00,
2013-02-02 09:06:00,24.1,19.4,29.97,WSW,248,6.4,8.1,82,0.00,CLR,SKC,0.00,WeatherDisplay:10.37,2013-02-02 14:06:00,
2013-02-02 09:11:00,24.1,19.4,29.97,SW,225,4.4,6.9,82,0.00,CLR,SKC,0.00,WeatherDisplay:10.37,2013-02-02 14:11:00,
2013-02-02 09:16:00,24.4,19.7,29.96,SSW,202,1.9,9.2,82,0.00,CLR,SKC,0.00,WeatherDisplay:10.37,2013-02-02 14:16:00,
2013-02-02 09:21:00,24.6,19.9,29.96,SSE,158,7.6,11.5,82,0.00,CLR,SKC,0.00,WeatherDisplay:10.37,2013-02-02 14:21:00,
2013-02-02 09:26:00,25.0,20.3,29.96,SW,225,5.2,8.1,82,0.00,CLR,SKC,0.00,WeatherDisplay:10.37,2013-02-02 14:26:00,
2013-02-02 09:31:00,25.2,20.1,29.96,WSW,248,9.3,9.3,81,0.00,CLR,SKC,0.00,WeatherDisplay:10.37,2013-02-02 14:31:00,
2013-02-02 09:36:00,25.5,20.5,29.95,South,180,2.8,5.8,81,0.00,CLR,SKC,0.00,WeatherDisplay:10.37,2013-02-02 14:36:00,
2013-02-02 09:41:00,25.5,20.5,29.95,SW,225,1.1,3.5,81,0.00,CLR,SKC,0.00,WeatherDisplay:10.37,2013-02-02 14:41:00,
2013-02-02 09:46:00,25.5,20.5,29.95,SSW,202,0.0,8.1,81,0.00,CLR,SKC,0.00,WeatherDisplay:10.37,2013-02-02 14:46:00,
2013-02-02 09:51:00,25.5,20.5,29.95,SSW,202,3.6,9.2,81,0.00,CLR,SKC,0.00,WeatherDisplay:10.37,2013-02-02 14:51:00,
2013-02-02 09:56:00,25.5,20.5,29.95,SW,225,3.3,8.1,81,0.00,CLR,SKC,0.00,WeatherDisplay:10.37,2013-02-02 14:56:00,
2013-02-02 10:01:00,25.7,20.7,29.95,SW,225,1.9,4.6,81,0.00,CLR,SKC,0.00,WeatherDisplay:10.37,2013-02-02 15:01:00,
2013-02-02 10:06:00,25.9,20.9,29.95,SSW,202,2.0,6.9,81,0.00,CLR,SKC,0.00,WeatherDisplay:10.37,2013-02-02 15:06:00,
2013-02-02 10:10:00,25.9,20.9,29.94,SSW,202,2.3,9.2,81,0.00,CLR,SKC,0.00,WeatherDisplay:10.37,2013-02-02 15:10:00,
2013-02-02 10:15:00,26.1,21.0,29.94,SSW,202,5.0,8.1,81,0.00,CLR,SKC,0.00,WeatherDisplay:10.37,2013-02-02 15:15:00,
2013-02-02 10:20:00,26.4,21.4,29.94,SSW,202,6.6,6.9,81,0.00,CLR,SKC,0.00,WeatherDisplay:10.37,2013-02-02 15:20:00,
2013-02-02 10:25:00,26.4,21.7,29.94,SW,225,3.8,6.9,82,0.00,CLR,SKC,0.00,WeatherDisplay:10.37,2013-02-02 15:25:00,
2013-02-02 10:30:00,26.8,21.7,29.93,SSW,202,3.1,5.8,81,0.00,CLR,SKC,0.00,WeatherDisplay:10.37,2013-02-02 15:30:00,
2013-02-02 10:35:00,26.8,21.7,29.93,SSW,202,4.7,5.8,81,0.00,CLR,SKC,0.00,WeatherDisplay:10.37,2013-02-02 15:35:00,
2013-02-02 10:40:00,27.1,22.1,29.93,SSW,202,4.2,7.8,81,0.00,CLR,SKC,0.00,WeatherDisplay:10.37,2013-02-02 15:40:00,
2013-02-02 10:45:00,27.1,22.1,29.93,SSW,202,2.3,6.9,81,0.00,CLR,SKC,0.00,WeatherDisplay:10.37,2013-02-02 15:45:00,
2013-02-02 10:50:00,27.1,21.8,29.93,SSW,202,3.9,4.6,80,0.00,CLR,SKC,0.00,WeatherDisplay:10.37,2013-02-02 15:50:00,
2013-02-02 10:55:00,27.3,22.0,29.93,SSW,202,3.4,8.1,80,0.00,CLR,SKC,0.00,WeatherDisplay:10.37,2013-02-02 15:55:00,
2013-02-02 11:00:00,27.3,22.0,29.92,SSW,202,1.8,3.5,80,0.00,CLR,SKC,0.00,WeatherDisplay:10.37,2013-02-02 16:00:00,
2013-02-02 11:05:00,27.3,22.0,29.93,SW,225,2.8,3.5,80,0.00,CLR,SKC,0.00,WeatherDisplay:10.37,2013-02-02 16:05:00,
2013-02-02 11:10:00,27.5,22.1,29.92,SW,225,2.9,4.9,80,0.00,CLR,SKC,0.00,WeatherDisplay:10.37,2013-02-02 16:10:00,
2013-02-02 11:15:00,27.7,22.3,29.93,SW,225,4.5,9.2,80,0.00,CLR,SKC,0.00,WeatherDisplay:10.37,2013-02-02 16:15:00,
2013-02-02 11:20:00,27.7,22.3,29.93,South,180,4.5,8.1,80,0.00,CLR,SKC,0.00,WeatherDisplay:10.37,2013-02-02 16:20:00,
2013-02-02 11:25:00,28.2,22.8,29.92,WSW,248,6.4,10.4,80,0.00,CLR,SKC,0.00,WeatherDisplay:10.37,2013-02-02 16:25:00,
2013-02-02 11:30:00,28.4,23.0,29.93,WSW,248,5.3,9.8,80,0.00,CLR,SKC,0.00,WeatherDisplay:10.37,2013-02-02 16:30:00,
2013-02-02 11:35:00,28.6,22.9,29.93,WSW,248,3.4,11.5,79,0.00,CLR,SKC,0.00,WeatherDisplay:10.37,2013-02-02 16:35:00,
2013-02-02 11:40:00,28.9,23.2,29.93,SSW,202,4.1,8.1,79,0.00,CLR,SKC,0.00,WeatherDisplay:10.37,2013-02-02 16:40:00,
2013-02-02 11:45:00,28.9,23.2,29.92,SSW,202,6.7,13.8,79,0.00,CLR,SKC,0.00,WeatherDisplay:10.37,2013-02-02 16:45:00,
2013-02-02 11:50:00,28.9,23.2,29.92,SW,225,2.7,9.2,79,0.00,CLR,SKC,0.00,WeatherDisplay:10.37,2013-02-02 16:50:00,
2013-02-02 11:55:00,28.6,22.9,29.92,West,270,5.2,9.2,79,0.00,CLR,SKC,0.00,WeatherDisplay:10.37,2013-02-02 16:55:00,
2013-02-02 12:00:00,28.6,22.9,29.92,WSW,248,5.2,5.2,79,0.00,CLR,SKC,0.00,WeatherDisplay:10.37,2013-02-02 17:00:00,
2013-02-02 12:05:00,28.6,22.9,29.92,South,180,3.7,11.5,79,0.00,CLR,SKC,0.00,WeatherDisplay:10.37,2013-02-02 17:05:00,
2013-02-02 12:10:00,28.6,22.9,29.92,SW,225,3.8,9.2,79,0.00,CLR,SKC,0.00,WeatherDisplay:10.37,2013-02-02 17:10:00,
2013-02-02 12:15:00,28.6,22.9,29.92,WSW,248,3.6,8.1,79,0.00,CLR,SKC,0.00,WeatherDisplay:10.37,2013-02-02 17:15:00,
2013-02-02 12:20:00,28.6,22.9,29.91,SSW,202,5.2,10.1,79,0.00,CLR,SKC,0.00,WeatherDisplay:10.37,2013-02-02 17:20:00,
2013-02-02 12:25:00,28.8,23.1,29.91,WSW,248,1.7,5.8,79,0.00,CLR,SKC,0.00,WeatherDisplay:10.37,2013-02-02 17:25:00,
2013-02-02 12:30:00,28.8,23.1,29.91,SSW,202,1.7,4.6,79,0.00,CLR,SKC,0.00,WeatherDisplay:10.37,2013-02-02 17:30:00,
2013-02-02 12:35:00,28.9,23.2,29.91,West,270,5.0,7.2,79,0.00,CLR,SKC,0.00,WeatherDisplay:10.37,2013-02-02 17:35:00,
2013-02-02 12:40:00,28.9,23.2,29.91,WSW,248,4.0,9.2,79,0.00,CLR,SKC,0.00,WeatherDisplay:10.37,2013-02-02 17:40:00,
2013-02-02 12:45:00,29.1,23.4,29.90,WSW,248,5.3,8.0,79,0.00,CLR,SKC,0.00,WeatherDisplay:10.37,2013-02-02 17:45:00,
2013-02-02 12:50:00,29.3,23.6,29.90,SW,225,6.7,11.5,79,0.00,CLR,SKC,0.00,WeatherDisplay:10.37,2013-02-02 17:50:00,
2013-02-02 12:55:00,29.3,23.3,29.90,SSW,202,2.5,5.8,78,0.00,CLR,SKC,0.00,WeatherDisplay:10.37,2013-02-02 17:55:00,
2013-02-02 13:00:00,29.3,23.6,29.90,West,270,5.5,6.9,79,0.00,CLR,SKC,0.00,WeatherDisplay:10.37,2013-02-02 18:00:00,
2013-02-02 13:05:00,29.3,23.6,29.90,WSW,248,3.6,9.2,79,0.00,CLR,SKC,0.00,WeatherDisplay:10.37,2013-02-02 18:05:00,
2013-02-02 13:10:00,29.5,23.8,29.89,SW,225,2.6,3.5,79,0.00,CLR,SKC,0.00,WeatherDisplay:10.37,2013-02-02 18:10:00,
2013-02-02 13:15:00,29.5,23.8,29.89,West,270,4.2,8.1,79,0.00,CLR,SKC,0.00,WeatherDisplay:10.37,2013-02-02 18:15:00,
2013-02-02 13:20:00,29.3,23.6,29.89,WNW,292,3.4,4.6,79,0.00,CLR,SKC,0.00,WeatherDisplay:10.37,2013-02-02 18:20:00,
2013-02-02 13:25:00,29.5,23.8,29.89,West,270,2.1,8.1,79,0.00,CLR,SKC,0.00,WeatherDisplay:10.37,2013-02-02 18:25:00,
2013-02-02 13:30:00,29.7,23.9,29.89,West,270,3.8,6.9,79,0.00,CLR,SKC,0.00,WeatherDisplay:10.37,2013-02-02 18:30:00,
2013-02-02 13:35:00,29.8,24.1,29.89,SW,225,3.6,4.6,79,0.00,CLR,SKC,0.00,WeatherDisplay:10.37,2013-02-02 18:35:00,
2013-02-02 13:40:00,29.8,24.1,29.89,West,270,5.1,5.8,79,0.00,CLR,SKC,0.00,WeatherDisplay:10.37,2013-02-02 18:40:00,
2013-02-02 13:45:00,29.7,23.6,29.88,WNW,292,2.4,3.5,78,0.00,CLR,SKC,0.00,WeatherDisplay:10.37,2013-02-02 18:45:00,
2013-02-02 13:50:00,29.7,23.9,29.89,West,270,4.7,6.9,79,0.00,CLR,SKC,0.00,WeatherDisplay:10.37,2013-02-02 18:50:00,
2013-02-02 13:55:00,29.8,24.1,29.88,WNW,292,4.1,4.1,79,0.00,CLR,SKC,0.00,WeatherDisplay:10.37,2013-02-02 18:55:00,
2013-02-02 14:00:00,29.8,23.8,29.89,West,270,2.8,3.5,78,0.00,CLR,SKC,0.00,WeatherDisplay:10.37,2013-02-02 19:00:00,
2013-02-02 14:05:00,29.8,23.8,29.88,West,270,4.1,8.1,78,0.00,CLR,SKC,0.00,WeatherDisplay:10.37,2013-02-02 19:05:00,
2013-02-02 14:10:00,29.7,23.6,29.89,WNW,292,3.6,9.2,78,0.00,CLR,SKC,0.00,WeatherDisplay:10.37,2013-02-02 19:10:00,
2013-02-02 14:15:00,29.8,23.8,29.89,WNW,292,1.9,4.6,78,0.00,CLR,SKC,0.00,WeatherDisplay:10.37,2013-02-02 19:15:00,
2013-02-02 14:20:00,29.8,23.8,29.89,West,270,3.7,10.4,78,0.00,CLR,SKC,0.00,WeatherDisplay:10.37,2013-02-02 19:20:00,
2013-02-02 14:25:00,29.7,23.6,29.88,West,270,2.8,4.6,78,0.00,CLR,SKC,0.00,WeatherDisplay:10.37,2013-02-02 19:25:00,
2013-02-02 14:30:00,29.8,23.8,29.89,West,270,2.2,5.8,78,0.00,CLR,SKC,0.00,WeatherDisplay:10.37,2013-02-02 19:30:00,
2013-02-02 14:35:00,30.0,24.0,29.88,West,270,5.2,9.2,78,0.00,CLR,SKC,0.00,WeatherDisplay:10.37,2013-02-02 19:35:00,
2013-02-02 14:40:00,29.8,23.8,29.88,West,270,5.1,10.4,78,0.00,CLR,SKC,0.00,WeatherDisplay:10.37,2013-02-02 19:40:00,
2013-02-02 14:45:00,29.8,23.8,29.89,West,270,1.8,5.8,78,0.00,CLR,SKC,0.00,WeatherDisplay:10.37,2013-02-02 19:45:00,
2013-02-02 14:50:00,29.8,23.8,29.89,West,270,6.6,8.1,78,0.00,CLR,SKC,0.00,WeatherDisplay:10.37,2013-02-02 19:50:00,
2013-02-02 14:55:00,29.7,23.6,29.89,West,270,4.6,6.9,78,0.00,CLR,SKC,0.00,WeatherDisplay:10.37,2013-02-02 19:55:00,
2013-02-02 15:00:00,29.7,23.6,29.89,West,270,3.7,9.2,78,0.00,CLR,SKC,0.00,WeatherDisplay:10.37,2013-02-02 20:00:00,
2013-02-02 15:05:00,29.7,23.6,29.89,WNW,292,2.2,6.9,78,0.00,CLR,SKC,0.00,WeatherDisplay:10.37,2013-02-02 20:05:00,
2013-02-02 15:10:00,29.7,23.6,29.89,WNW,292,3.8,3.8,78,0.00,CLR,SKC,0.00,WeatherDisplay:10.37,2013-02-02 20:10:00,
2013-02-02 15:15:00,29.7,23.6,29.90,West,270,2.6,3.5,78,0.00,CLR,SKC,0.00,WeatherDisplay:10.37,2013-02-02 20:15:00,
2013-02-02 15:20:00,29.5,23.5,29.89,West,270,1.0,4.6,78,0.00,CLR,SKC,0.00,WeatherDisplay:10.37,2013-02-02 20:20:00,
2013-02-02 15:25:00,29.5,23.8,29.89,WNW,292,3.0,4.2,79,0.00,CLR,SKC,0.00,WeatherDisplay:10.37,2013-02-02 20:25:00,
2013-02-02 15:30:00,29.5,23.8,29.90,West,270,2.0,4.6,79,0.00,CLR,SKC,0.00,WeatherDisplay:10.37,2013-02-02 20:30:00,
2013-02-02 15:35:00,29.3,23.6,29.90,WNW,292,5.9,9.2,79,0.00,CLR,SKC,0.00,WeatherDisplay:10.37,2013-02-02 20:35:00,
2013-02-02 15:40:00,29.5,23.5,29.90,WNW,292,2.7,5.8,78,0.00,CLR,SKC,0.00,WeatherDisplay:10.37,2013-02-02 20:40:00,
2013-02-02 15:45:00,29.3,23.3,29.89,WSW,248,3.1,3.1,78,0.00,CLR,SKC,0.00,WeatherDisplay:10.37,2013-02-02 20:45:00,
2013-02-02 15:50:00,29.3,23.3,29.90,West,270,4.9,10.4,78,0.00,CLR,SKC,0.00,WeatherDisplay:10.37,2013-02-02 20:50:00,
2013-02-02 15:55:00,29.1,23.4,29.90,WNW,292,3.3,5.8,79,0.00,CLR,SKC,0.00,WeatherDisplay:10.37,2013-02-02 20:55:00,
2013-02-02 16:00:00,29.1,23.4,29.90,WNW,292,2.4,6.9,79,0.00,CLR,SKC,0.00,WeatherDisplay:10.37,2013-02-02 21:00:00,
2013-02-02 16:05:00,29.1,23.4,29.90,WNW,292,4.0,4.0,79,0.00,CLR,SKC,0.00,WeatherDisplay:10.37,2013-02-02 21:05:00,
2013-02-02 16:10:00,29.1,23.4,29.90,WNW,292,5.2,6.9,79,0.00,CLR,SKC,0.00,WeatherDisplay:10.37,2013-02-02 21:10:00,
2013-02-02 16:15:00,29.1,23.4,29.90,NW,315,3.2,7.2,79,0.00,CLR,SKC,0.00,WeatherDisplay:10.37,2013-02-02 21:15:00,
2013-02-02 16:20:00,29.1,23.7,29.91,WNW,292,4.5,5.1,80,0.00,CLR,SKC,0.00,WeatherDisplay:10.37,2013-02-02 21:20:00,
2013-02-02 16:25:00,29.1,23.7,29.91,West,270,3.6,5.8,80,0.00,CLR,SKC,0.00,WeatherDisplay:10.37,2013-02-02 21:25:00,
2013-02-02 16:30:00,28.9,23.5,29.91,NW,315,2.3,3.5,80,0.00,CLR,SKC,0.00,WeatherDisplay:10.37,2013-02-02 21:30:00,
2013-02-02 16:35:00,29.1,23.7,29.91,West,270,1.4,4.6,80,0.00,CLR,SKC,0.00,WeatherDisplay:10.37,2013-02-02 21:35:00,
2013-02-02 16:40:00,29.1,23.7,29.91,West,270,3.1,6.7,80,0.00,CLR,SKC,0.00,WeatherDisplay:10.37,2013-02-02 21:40:00,
2013-02-02 16:45:00,28.9,23.5,29.91,WNW,292,1.9,3.6,80,0.00,CLR,SKC,0.00,WeatherDisplay:10.37,2013-02-02 21:45:00,
2013-02-02 16:50:00,28.9,23.5,29.91,WNW,292,2.6,4.6,80,0.00,CLR,SKC,0.00,WeatherDisplay:10.37,2013-02-02 21:50:00,
2013-02-02 16:55:00,28.8,23.4,29.91,WSW,248,4.0,8.1,80,0.00,CLR,SKC,0.00,WeatherDisplay:10.37,2013-02-02 21:55:00,
2013-02-02 17:00:00,28.8,23.4,29.92,West,270,1.9,4.6,80,0.00,CLR,SKC,0.00,WeatherDisplay:10.37,2013-02-02 22:00:00,
2013-02-02 17:05:00,28.6,23.2,29.92,WNW,292,3.0,4.7,80,0.00,CLR,SKC,0.00,WeatherDisplay:10.37,2013-02-02 22:05:00,
2013-02-02 17:10:00,28.6,23.2,29.92,WNW,292,0.9,3.5,80,0.00,CLR,SKC,0.00,WeatherDisplay:10.37,2013-02-02 22:10:00,
2013-02-02 17:15:00,28.6,23.2,29.92,WNW,292,2.1,4.6,80,0.00,CLR,SKC,0.00,WeatherDisplay:10.37,2013-02-02 22:15:00,
2013-02-02 17:20:00,28.6,23.2,29.92,West,270,5.1,5.8,80,0.00,CLR,SKC,0.00,WeatherDisplay:10.37,2013-02-02 22:20:00,
2013-02-02 17:25:00,28.2,22.8,29.92,West,270,3.1,3.5,80,0.00,CLR,SKC,0.00,WeatherDisplay:10.37,2013-02-02 22:25:00,
2013-02-02 17:30:00,28.0,22.7,29.92,NNW,338,2.9,3.5,80,0.00,CLR,SKC,0.00,WeatherDisplay:10.37,2013-02-02 22:30:00,
2013-02-02 17:35:00,28.0,22.7,29.93,West,270,3.0,4.6,80,0.00,CLR,SKC,0.00,WeatherDisplay:10.37,2013-02-02 22:35:00,
2013-02-02 17:40:00,27.9,22.5,29.92,NW,315,2.5,5.8,80,0.00,CLR,SKC,0.00,WeatherDisplay:10.37,2013-02-02 22:40:00,
2013-02-02 17:45:00,27.7,22.6,29.93,NNW,338,1.5,6.7,81,0.00,CLR,SKC,0.00,WeatherDisplay:10.37,2013-02-02 22:45:00,
2013-02-02 17:50:00,27.5,22.4,29.93,WNW,292,0.1,2.3,81,0.00,CLR,SKC,0.00,WeatherDisplay:10.37,2013-02-02 22:50:00,
2013-02-02 17:55:00,27.1,22.1,29.93,NNW,338,2.3,3.5,81,0.00,CLR,SKC,0.00,WeatherDisplay:10.37,2013-02-02 22:55:00,
2013-02-02 18:00:00,27.1,22.1,29.93,NNW,338,0.1,1.1,81,0.00,CLR,SKC,0.00,WeatherDisplay:10.37,2013-02-02 23:00:00,
2013-02-02 18:05:00,27.1,22.1,29.93,NNW,338,0.2,2.3,81,0.00,CLR,SKC,0.00,WeatherDisplay:10.37,2013-02-02 23:05:00,
2013-02-02 18:10:00,27.0,21.9,29.93,North,0,1.4,3.5,81,0.00,CLR,SKC,0.00,WeatherDisplay:10.37,2013-02-02 23:10:00,
2013-02-02 18:15:00,26.8,22.0,29.94,NW,315,3.9,10.4,82,0.00,CLR,SKC,0.00,WeatherDisplay:10.37,2013-02-02 23:15:00,
2013-02-02 18:20:00,26.8,22.0,29.94,NNW,338,4.4,8.1,82,0.00,CLR,SKC,0.00,WeatherDisplay:10.37,2013-02-02 23:20:00,
2013-02-02 18:25:00,26.4,21.4,29.94,NNW,338,6.3,10.4,81,0.00,CLR,SKC,0.00,WeatherDisplay:10.37,2013-02-02 23:25:00,
2013-02-02 18:30:00,25.9,20.9,29.94,NNW,338,4.8,8.1,81,0.00,CLR,SKC,0.00,WeatherDisplay:10.37,2013-02-02 23:30:00,
2013-02-02 18:35:00,25.5,20.5,29.94,NNW,338,4.6,6.9,81,0.00,CLR,SKC,0.00,WeatherDisplay:10.37,2013-02-02 23:35:00,
2013-02-02 18:40:00,25.3,20.3,29.94,NW,315,2.6,5.8,81,0.00,CLR,SKC,0.00,WeatherDisplay:10.37,2013-02-02 23:40:00,
2013-02-02 18:45:00,25.2,20.1,29.93,NNW,338,1.6,7.2,81,0.00,CLR,SKC,0.00,WeatherDisplay:10.37,2013-02-02 23:45:00,
2013-02-02 18:50:00,25.0,20.0,29.94,WNW,292,3.4,4.6,81,0.00,CLR,SKC,0.00,WeatherDisplay:10.37,2013-02-02 23:50:00,
2013-02-02 18:55:00,24.6,19.6,29.94,NNW,338,7.2,8.1,81,0.00,CLR,SKC,0.00,WeatherDisplay:10.37,2013-02-02 23:55:00,
2013-02-02 19:00:00,24.4,19.4,29.94,NNW,338,4.5,8.1,81,0.00,CLR,SKC,0.00,WeatherDisplay:10.37,2013-02-03 00:00:00,
2013-02-02 19:05:00,24.1,19.1,29.94,NNW,338,2.1,2.3,81,0.00,CLR,SKC,0.00,WeatherDisplay:10.37,2013-02-03 00:05:00,
2013-02-02 19:10:00,23.9,18.9,29.94,NNW,338,4.2,8.1,81,0.00,CLR,SKC,0.00,WeatherDisplay:10.37,2013-02-03 00:10:00,
2013-02-02 19:15:00,23.7,18.7,29.95,WNW,292,2.6,6.9,81,0.00,CLR,SKC,0.00,WeatherDisplay:10.37,2013-02-03 00:15:00,
2013-02-02 19:20:00,23.5,18.6,29.94,WNW,292,5.0,10.4,81,0.00,CLR,SKC,0.00,WeatherDisplay:10.37,2013-02-03 00:20:00,
2013-02-02 19:25:00,23.4,18.4,29.95,West,270,5.5,6.9,81,0.00,CLR,SKC,0.00,WeatherDisplay:10.37,2013-02-03 00:25:00,
2013-02-02 19:30:00,23.2,18.2,29.95,NW,315,2.8,5.8,81,0.00,CLR,SKC,0.00,WeatherDisplay:10.37,2013-02-03 00:30:00,
2013-02-02 19:35:00,23.0,18.3,29.95,NNW,338,5.7,9.2,82,0.00,CLR,SKC,0.00,WeatherDisplay:10.37,2013-02-03 00:35:00,
2013-02-02 19:40:00,22.8,17.9,29.95,NNW,338,3.7,5.8,81,0.00,CLR,SKC,0.00,WeatherDisplay:10.37,2013-02-03 00:40:00,
2013-02-02 19:45:00,22.8,17.9,29.95,NNW,338,4.5,4.5,81,0.00,CLR,SKC,0.00,WeatherDisplay:10.37,2013-02-03 00:45:00,
2013-02-02 19:50:00,22.6,17.7,29.95,West,270,3.4,6.9,81,0.00,CLR,SKC,0.00,WeatherDisplay:10.37,2013-02-03 00:50:00,
2013-02-02 19:55:00,22.5,17.5,29.96,WNW,292,2.0,6.9,81,0.00,CLR,SKC,0.00,WeatherDisplay:10.37,2013-02-03 00:55:00,
2013-02-02 20:00:00,22.3,17.3,29.96,West,270,1.4,1.4,81,0.00,CLR,SKC,0.00,WeatherDisplay:10.37,2013-02-03 01:00:00,
2013-02-02 20:05:00,22.3,17.3,29.96,WNW,292,1.4,4.6,81,0.00,CLR,SKC,0.00,WeatherDisplay:10.37,2013-02-03 01:05:00,
2013-02-02 20:10:00,22.3,17.3,29.96,WNW,292,3.2,4.6,81,0.00,CLR,SKC,0.00,WeatherDisplay:10.37,2013-02-03 01:10:00,
2013-02-02 20:15:00,22.1,17.4,29.97,WNW,292,2.7,4.6,82,0.00,CLR,SKC,0.00,WeatherDisplay:10.37,2013-02-03 01:15:00,
2013-02-02 20:20:00,22.1,17.4,29.97,NW,315,3.6,5.8,82,0.00,CLR,SKC,0.00,WeatherDisplay:10.37,2013-02-03 01:20:00,
2013-02-02 20:25:00,22.1,17.4,29.96,NNW,338,1.6,1.6,82,0.00,CLR,SKC,0.00,WeatherDisplay:10.37,2013-02-03 01:25:00,
2013-02-02 20:30:00,22.1,17.4,29.96,WNW,292,7.6,8.1,82,0.00,CLR,SKC,0.00,WeatherDisplay:10.37,2013-02-03 01:30:00,
2013-02-02 20:35:00,22.1,17.4,29.96,NW,315,0.9,3.5,82,0.00,CLR,SKC,0.00,WeatherDisplay:10.37,2013-02-03 01:35:00,
2013-02-02 20:40:00,22.1,17.4,29.97,NNW,338,1.6,5.8,82,0.00,CLR,SKC,0.00,WeatherDisplay:10.37,2013-02-03 01:40:00,
2013-02-02 20:45:00,21.9,17.3,29.97,WNW,292,4.0,8.1,82,0.00,CLR,SKC,0.00,WeatherDisplay:10.37,2013-02-03 01:45:00,
2013-02-02 20:50:00,21.9,17.3,29.96,NW,315,2.8,5.8,82,0.00,CLR,SKC,0.00,WeatherDisplay:10.37,2013-02-03 01:50:00,
2013-02-02 20:55:00,21.9,17.3,29.97,WNW,292,6.2,8.1,82,0.00,CLR,SKC,0.00,WeatherDisplay:10.37,2013-02-03 01:55:00,
2013-02-02 21:00:00,21.7,16.8,29.97,WNW,292,1.3,5.8,81,0.00,CLR,SKC,0.00,WeatherDisplay:10.37,2013-02-03 02:00:00,
2013-02-02 21:05:00,21.6,16.6,29.97,West,270,1.5,5.8,81,0.00,CLR,SKC,0.00,WeatherDisplay:10.37,2013-02-03 02:05:00,
2013-02-02 21:10:00,21.4,16.5,29.97,West,270,4.8,10.5,81,0.00,CLR,SKC,0.00,WeatherDisplay:10.37,2013-02-03 02:10:00,
2013-02-02 21:15:00,21.0,16.1,29.97,WNW,292,3.6,5.8,81,0.00,CLR,SKC,0.00,WeatherDisplay:10.37,2013-02-03 02:15:00,
2013-02-02 21:20:00,20.8,15.9,29.97,WNW,292,7.8,8.3,81,0.00,CLR,SKC,0.00,WeatherDisplay:10.37,2013-02-03 02:20:00,
2013-02-02 21:25:00,20.5,15.3,29.97,WNW,292,2.1,9.2,80,0.00,CLR,SKC,0.00,WeatherDisplay:10.37,2013-02-03 02:25:00,
2013-02-02 21:30:00,20.1,14.9,29.97,SW,225,6.7,8.1,80,0.00,CLR,SKC,0.00,WeatherDisplay:10.37,2013-02-03 02:30:00,
2013-02-02 21:35:00,19.9,14.8,29.97,West,270,3.7,6.9,80,0.00,CLR,SKC,0.00,WeatherDisplay:10.37,2013-02-03 02:35:00,
2013-02-02 21:40:00,19.6,14.4,29.97,WNW,292,2.8,5.8,80,0.00,CLR,SKC,0.00,WeatherDisplay:10.37,2013-02-03 02:40:00,
2013-02-02 21:45:00,19.2,14.1,29.97,WNW,292,5.0,6.9,80,0.00,CLR,SKC,0.00,WeatherDisplay:10.37,2013-02-03 02:45:00,
2013-02-02 21:50:00,19.2,14.1,29.97,West,270,4.8,6.9,80,0.00,CLR,SKC,0.00,WeatherDisplay:10.37,2013-02-03 02:50:00,
2013-02-02 21:55:00,19.0,13.9,29.97,WNW,292,3.3,5.8,80,0.00,CLR,SKC,0.00,WeatherDisplay:10.37,2013-02-03 02:55:00,
2013-02-02 22:00:00,18.9,13.7,29.97,SW,225,4.0,6.0,80,0.00,CLR,SKC,0.00,WeatherDisplay:10.37,2013-02-03 03:00:00,
2013-02-02 22:05:00,18.7,13.5,29.97,West,270,1.1,3.8,80,0.00,CLR,SKC,0.00,WeatherDisplay:10.37,2013-02-03 03:05:00,
2013-02-02 22:10:00,18.5,13.4,29.97,West,270,2.2,3.5,80,0.00,CLR,SKC,0.00,WeatherDisplay:10.37,2013-02-03 03:10:00,
2013-02-02 22:15:00,18.3,13.2,29.97,West,270,5.1,5.8,80,0.00,CLR,SKC,0.00,WeatherDisplay:10.37,2013-02-03 03:15:00,
2013-02-02 22:20:00,18.3,13.2,29.97,WSW,248,2.7,5.4,80,0.00,CLR,SKC,0.00,WeatherDisplay:10.37,2013-02-03 03:20:00,
2013-02-02 22:25:00,18.0,12.8,29.97,WNW,292,1.8,4.6,80,0.00,CLR,SKC,0.00,WeatherDisplay:10.37,2013-02-03 03:25:00,
2013-02-02 22:30:00,18.0,12.8,29.97,West,270,3.6,4.6,80,0.00,CLR,SKC,0.00,WeatherDisplay:10.37,2013-02-03 03:30:00,
2013-02-02 22:35:00,17.8,12.7,29.97,WNW,292,6.6,8.1,80,0.00,CLR,SKC,0.00,WeatherDisplay:10.37,2013-02-03 03:35:00,
2013-02-02 22:40:00,17.8,12.7,29.97,WNW,292,2.9,4.6,80,0.00,CLR,SKC,0.00,WeatherDisplay:10.37,2013-02-03 03:40:00,
2013-02-02 22:45:00,17.4,12.3,29.97,West,270,5.0,8.1,80,0.00,CLR,SKC,0.00,WeatherDisplay:10.37,2013-02-03 03:45:00,
2013-02-02 22:50:00,17.4,12.3,29.96,West,270,0.8,1.1,80,0.00,CLR,SKC,0.00,WeatherDisplay:10.37,2013-02-03 03:50:00,
2013-02-02 22:55:00,17.2,12.1,29.96,WSW,248,6.0,6.9,80,0.00,CLR,SKC,0.00,WeatherDisplay:10.37,2013-02-03 03:55:00,
2013-02-02 23:00:00,17.2,12.1,29.96,West,270,2.8,5.8,80,0.00,CLR,SKC,0.00,WeatherDisplay:10.37,2013-02-03 04:00:00,
2013-02-02 23:05:00,16.9,11.8,29.96,West,270,3.0,6.9,80,0.00,CLR,SKC,0.00,WeatherDisplay:10.37,2013-02-03 04:05:00,
2013-02-02 23:10:00,16.7,11.6,29.96,WSW,248,3.9,3.9,80,0.00,CLR,SKC,0.00,WeatherDisplay:10.37,2013-02-03 04:10:00,
2013-02-02 23:15:00,16.7,11.6,29.96,West,270,2.4,4.6,80,0.00,CLR,SKC,0.00,WeatherDisplay:10.37,2013-02-03 04:15:00,
2013-02-02 23:20:00,16.7,11.6,29.96,West,270,5.1,10.4,80,0.00,CLR,SKC,0.00,WeatherDisplay:10.37,2013-02-03 04:20:00,
2013-02-02 23:25:00,16.3,11.0,29.96,West,270,3.5,8.1,79,0.00,CLR,SKC,0.00,WeatherDisplay:10.37,2013-02-03 04:25:00,
2013-02-02 23:30:00,16.3,11.0,29.96,West,270,3.7,9.2,79,0.00,CLR,SKC,0.00,WeatherDisplay:10.37,2013-02-03 04:30:00,
2013-02-02 23:35:00,16.3,11.0,29.96,West,270,2.7,4.6,79,0.00,CLR,SKC,0.00,WeatherDisplay:10.37,2013-02-03 04:35:00,
2013-02-02 23:40:00,16.2,10.8,29.96,West,270,3.1,8.1,79,0.00,CLR,SKC,0.00,WeatherDisplay:10.37,2013-02-03 04:40:00,
2013-02-02 23:45:00,16.0,10.6,29.96,WNW,292,3.6,8.1,79,0.00,CLR,SKC,0.00,WeatherDisplay:10.37,2013-02-03 04:45:00,
2013-02-02 23:50:00,15.8,10.4,29.96,West,270,4.3,4.3,79,0.00,CLR,SKC,0.00,WeatherDisplay:10.37,2013-02-03 04:50:00,
2013-02-02 23:55:00,15.6,10.3,29.96,SW,225,4.3,6.9,79,0.00,CLR,SKC,0.00,WeatherDisplay:10.37,2013-02-03 04:55:00,